Вернуться в каталог

ARIANE 5 DEB

SYLDA

АктивенHEO
NORAD 54744·DEBRIS·🇫🇷 France

Запущен Dec 13, 2022 с Guiana Space Centre

Loading…

Ближайшие Пролёты (ближайшие 24 часа)

TLE

СвежийSource: Space-Track

Эпоха: Sep 14, 2026, 08:47 UTC

1 54744U 22170D   26257.36659440  .00393232 -61470-6  46143-2 0  9992
2 54744   6.2752 134.4111 4849581 320.1121  12.8098  6.03180415 54333

Отслеживайте ARIANE 5 DEB в реальном времени с AllMySat

Download on the App Store